Weather in Slavskoe

Ukraine / Lviv District     48°50′55″N   23°26′50″E
temp.,
°C
wind,
m/s
gust,
m/s
humid.,
%
clouds,
%
prec.,
mm/h
press.,
hPa
HPBL,
m
7 march, sun
sun723:00−8s228411 0.0 103132
02:00−8s22865 0.0 103147
05:00−9ssw36890 0.0 1028172
08:00−7ssw512800 0.0 1027756
11:00−3sw712660 0.0 10251001
14:00−1sw711635 0.0 10221035
17:00−2ssw611670 0.0 1019947
20:00−5ssw410802 0.0 1019428
8 march, mon
mon823:00−6ssw310853 0.0 1019310
02:00−7ssw389220 0.0 1018227
05:00−8ssw229547 0.0 101737
08:00−6ssw229124 0.0 1017106
11:00−1wsw137563 0.1 1017614
14:00−1w247781 0.7 1017667
17:00−3n356979 1.6 10181013
20:00−7ne129039 1.6 102123
9 march, tue
tue923:00−7ne119572 0.1 102222
02:00−8nne119662 0.1 102321
05:00−9ene11960 0.0 102221
08:00−8ene118831 0.0 102350
11:00−2ne125624 0.0 1022851
14:000nne014836 0.0 10211318
17:00−2ne1158100 0.0 1020782
20:00−5ne1288100 0.0 102178
10 march, wed
wed1023:00−6ene1192100 0.0 102152
02:00−6ene1189100 0.0 102042
05:00−6ne1187100 0.0 102023
08:00−6nne118499 0.0 102096
11:00−3nne226995 0.0 1021655
14:00−2ne346997 0.1 1021861
17:00−3ne477865 0.1 1021807
20:00−6ne289453 0.1 1023468
11 march, thu
thu1123:00−7ne229511 0.0 102567
02:00−7e11966 0.0 102521
05:00−7se11920 0.0 102421
08:00−6s23820 0.0 1024123
11:00−2ssw476266 0.0 1023827
14:00−1ssw6116682 0.0 10211034
17:00−2ssw61274100 0.0 1019912
20:00−3ssw61490100 0.3 1018879